| time (UTC) | temp F | wind direction | speed knots | gust knots | rain 1hr in | rain 24hr in | rain mn in | humidity % | barometer mb |
| 20260504221529 | 74 | 168 | 5.2 | 17.4 | 0.00 | 0.00 | 0.00 | 37 | 999.8 |
| 20260504221013 | 74 | 191 | 7.8 | 17.4 | 0.00 | 0.00 | 0.00 | 36 | 999.7 |
| 20260504220518 | 74 | 207 | 6.1 | 15.6 | 0.00 | 0.00 | 0.00 | 36 | 999.7 |
| 20260504220030 | 74 | 193 | 5.2 | 20.9 | 0.00 | 0.00 | 0.00 | 36 | 999.7 |
| 20260504215514 | 74 | 221 | 8.7 | 20.9 | 0.00 | 0.00 | 0.00 | 34 | 999.8 |
| 20260504215013 | 74 | 217 | 7.0 | 16.5 | 0.00 | 0.00 | 0.00 | 34 | 999.7 |
| 20260504214531 | 74 | 233 | 4.3 | 14.8 | 0.00 | 0.00 | 0.00 | 36 | 999.8 |
| 20260504214015 | 74 | 232 | 5.2 | 17.4 | 0.00 | 0.00 | 0.00 | 35 | 999.8 |
| 20260504213515 | 74 | 179 | 8.7 | 22.6 | 0.00 | 0.00 | 0.00 | 35 | 999.8 |
| 20260504213032 | 74 | 172 | 7.8 | 22.6 | 0.00 | 0.00 | 0.00 | 36 | 999.8 |
| 20260504212518 | 74 | 176 | 7.8 | 18.2 | 0.00 | 0.00 | 0.00 | 34 | 999.8 |
| 20260504212015 | 74 | 199 | 8.7 | 18.2 | 0.00 | 0.00 | 0.00 | 34 | 999.8 |
| 20260504211536 | 74 | 177 | 7.0 | 19.1 | 0.00 | 0.00 | 0.00 | 34 | 999.8 |
| 20260504211014 | 74 | 175 | 7.0 | 19.1 | 0.00 | 0.00 | 0.00 | 34 | 999.9 |
| 20260504210514 | 74 | 184 | 7.0 | 19.1 | 0.00 | 0.00 | 0.00 | 33 | 1000.0 |
| 20260504210040 | 74 | 214 | 8.7 | 15.6 | 0.00 | 0.00 | 0.00 | 30 | 1000.1 |
| 20260504205515 | 74 | 158 | 6.1 | 13.0 | 0.00 | 0.00 | 0.00 | 30 | 1000.1 |
| 20260504205014 | 74 | 205 | 5.2 | 14.8 | 0.00 | 0.00 | 0.00 | 31 | 1000.1 |
| 20260504204532 | 74 | 241 | 5.2 | 14.8 | 0.00 | 0.00 | 0.00 | 31 | 1000.2 |
| 20260504204016 | 74 | 212 | 5.2 | 16.5 | 0.00 | 0.00 | 0.00 | 30 | 1000.1 |
| 20260504203513 | 74 | 154 | 7.0 | 16.5 | 0.00 | 0.00 | 0.00 | 30 | 1000.3 |
| 20260504203049 | 74 | 224 | 7.8 | 18.2 | 0.00 | 0.00 | 0.00 | 30 | 1000.3 |
| 20260504202515 | 74 | 217 | 7.8 | 18.2 | 0.00 | 0.00 | 0.00 | 30 | 1000.2 |
| 20260504202015 | 74 | 218 | 9.6 | 17.4 | 0.00 | 0.00 | 0.00 | 30 | 1000.3 |
| 20260504201532 | 74 | 217 | 7.8 | 24.3 | 0.00 | 0.00 | 0.00 | 29 | 1000.2 |
| 20260504201023 | 74 | 232 | 10.4 | 24.3 | 0.00 | 0.00 | 0.00 | 29 | 1000.3 |
| 20260504200514 | 74 | 252 | 9.6 | 20.0 | 0.00 | 0.00 | 0.00 | 28 | 1000.2 |
| 20260504200030 | 74 | 226 | 7.0 | 19.1 | 0.00 | 0.00 | 0.00 | 27 | 1000.5 |
| 20260504195515 | 73 | 159 | 6.1 | 19.1 | 0.00 | 0.00 | 0.00 | 29 | 1000.5 |
| 20260504195013 | 73 | 224 | 9.6 | 20.0 | 0.00 | 0.00 | 0.00 | 26 | 1000.7 |
| 20260504194533 | 73 | 238 | 8.7 | 20.0 | 0.00 | 0.00 | 0.00 | 28 | 1000.6 |
| 20260504194013 | 73 | 212 | 10.4 | 20.0 | 0.00 | 0.00 | 0.00 | 26 | 1000.7 |
| 20260504193517 | 74 | 257 | 7.8 | 14.8 | 0.00 | 0.00 | 0.00 | 27 | 1000.6 |
| 20260504193031 | 74 | 199 | 6.1 | 18.2 | 0.00 | 0.00 | 0.00 | 26 | 1000.8 |
| 20260504192514 | 73 | 193 | 7.0 | 18.2 | 0.00 | 0.00 | 0.00 | 27 | 1000.7 |
| 20260504192012 | 73 | 217 | 8.7 | 18.2 | 0.00 | 0.00 | 0.00 | 26 | 1000.8 |
| 20260504191530 | 73 | 221 | 7.8 | 20.0 | 0.00 | 0.00 | 0.00 | 26 | 1000.7 |
| 20260504191017 | 73 | 210 | 8.7 | 20.9 | 0.00 | 0.00 | 0.00 | 27 | 1000.9 |
| 20260504190515 | 73 | 207 | 8.7 | 24.3 | 0.00 | 0.00 | 0.00 | 27 | 1001.0 |
| 20260504190030 | 73 | 221 | 13.9 | 24.3 | 0.00 | 0.00 | 0.00 | 27 | 1001.0 |
| 20260504185513 | 73 | 229 | 7.0 | 19.1 | 0.00 | 0.00 | 0.00 | 27 | 1000.9 |
| 20260504185015 | 73 | 226 | 10.4 | 22.6 | 0.00 | 0.00 | 0.00 | 27 | 1001.1 |
| 20260504184534 | 73 | 237 | 12.2 | 22.6 | 0.00 | 0.00 | 0.00 | 25 | 1001.1 |
| 20260504184016 | 73 | 221 | 11.3 | 19.1 | 0.00 | 0.00 | 0.00 | 27 | 1001.1 |
| 20260504183515 | 73 | 224 | 5.2 | 21.7 | 0.00 | 0.00 | 0.00 | 28 | 1001.1 |
| 20260504183034 | 73 | 183 | 8.7 | 21.7 | 0.00 | 0.00 | 0.00 | 28 | 1001.2 |
| 20260504182523 | 73 | 224 | 10.4 | 20.9 | 0.00 | 0.00 | 0.00 | 27 | 1001.1 |
| 20260504182017 | 73 | 244 | 10.4 | 20.9 | 0.00 | 0.00 | 0.00 | 27 | 1001.2 |
| 20260504181530 | 73 | 212 | 6.1 | 19.1 | 0.00 | 0.00 | 0.00 | 28 | 1001.1 |
| 20260504181015 | 73 | 176 | 7.0 | 19.1 | 0.00 | 0.00 | 0.00 | 29 | 1001.1 |
| 20260504180513 | 73 | 231 | 3.5 | 19.1 | 0.00 | 0.00 | 0.00 | 32 | 1001.1 |
| 20260504180032 | 72 | 210 | 7.8 | 19.1 | 0.00 | 0.00 | 0.00 | 31 | 1001.2 |
| 20260504175515 | 72 | 224 | 7.8 | 19.1 | 0.00 | 0.00 | 0.00 | 31 | 1001.2 |
| 20260504175015 | 72 | 212 | 6.1 | 19.1 | 0.00 | 0.00 | 0.00 | 33 | 1001.2 |
| 20260504174532 | 72 | 248 | 7.8 | 19.1 | 0.00 | 0.00 | 0.00 | 34 | 1001.3 |
| 20260504174016 | 72 | 221 | 6.1 | 16.5 | 0.00 | 0.00 | 0.00 | 32 | 1001.4 |
| 20260504173513 | 72 | 156 | 7.8 | 16.5 | 0.00 | 0.00 | 0.00 | 32 | 1001.5 |
| 20260504173030 | 72 | 208 | 5.2 | 14.8 | 0.00 | 0.00 | 0.00 | 34 | 1001.6 |
| 20260504172513 | 72 | 228 | 6.1 | 16.5 | 0.00 | 0.00 | 0.00 | 33 | 1001.7 |
| 20260504172013 | 71 | 233 | 6.1 | 16.5 | 0.00 | 0.00 | 0.00 | 34 | 1001.8 |
| 20260504171531 | 72 | 201 | 8.7 | 16.5 | 0.00 | 0.00 | 0.00 | 32 | 1001.9 |
| 20260504171018 | 71 | 214 | 4.3 | 15.6 | 0.00 | 0.00 | 0.00 | 33 | 1001.9 |
| 20260504170515 | 71 | 228 | 4.3 | 18.2 | 0.00 | 0.00 | 0.00 | 35 | 1002.1 |
| 20260504151017 | 64 | 172 | 2.6 | 8.7 | 0.00 | 0.00 | 0.00 | 55 | 1003.6 |
| 20260504150514 | 63 | 163 | 2.6 | 8.7 | 0.00 | 0.00 | 0.00 | 55 | 1003.7 |
| 20260504141013 | 61 | 187 | 3.5 | 9.6 | 0.00 | 0.00 | 0.00 | 59 | 1003.9 |
| 20260504140516 | 60 | 0 | 3.5 | 11.3 | 0.00 | 0.00 | 0.00 | 60 | 1003.9 |
| 20260504130516 | 56 | 208 | 2.6 | 8.7 | 0.00 | 0.00 | 0.00 | 68 | 1004.5 |
| 20260504110512 | 49 | 186 | 1.7 | 3.5 | 0.00 | 0.00 | 0.00 | 78 | 1004.4 |
| 20260504100517 | 49 | 188 | 0.9 | 5.2 | 0.00 | 0.00 | 0.00 | 77 | 1004.4 |
| 20260504081534 | 49 | 213 | 0.9 | 7.8 | 0.00 | 0.00 | 0.00 | 74 | 1005.2 |
| 20260504081015 | 49 | 169 | 1.7 | 7.8 | 0.00 | 0.00 | 0.00 | 74 | 1005.2 |
| 20260504080513 | 49 | 167 | 2.6 | 7.8 | 0.00 | 0.00 | 0.00 | 74 | 1005.3 |
| 20260504050516 | 51 | 207 | 3.5 | 13.9 | 0.00 | 0.00 | 0.00 | 66 | 1007.5 |
| 20260504045513 | 51 | 170 | 5.2 | 13.9 | 0.00 | 0.00 | 0.00 | 66 | 1007.7 |
| 20260504045013 | 51 | 203 | 4.3 | 13.0 | 0.00 | 0.00 | 0.00 | 66 | 1007.6 |
| 20260504044533 | 51 | 162 | 6.1 | 13.0 | 0.00 | 0.00 | 0.00 | 65 | 1007.7 |
| 20260504044021 | 51 | 218 | 5.2 | 14.8 | 0.00 | 0.00 | 0.00 | 65 | 1007.7 |
| 20260504043514 | 51 | 190 | 3.5 | 14.8 | 0.00 | 0.00 | 0.00 | 65 | 1007.7 |
| 20260504043032 | 51 | 175 | 6.1 | 14.8 | 0.00 | 0.00 | 0.00 | 65 | 1007.7 |
| 20260504042514 | 51 | 176 | 4.3 | 12.2 | 0.00 | 0.00 | 0.00 | 65 | 1007.8 |
| 20260504042014 | 51 | 212 | 5.2 | 11.3 | 0.00 | 0.00 | 0.00 | 65 | 1007.9 |
| 20260504041532 | 51 | 187 | 5.2 | 18.2 | 0.00 | 0.00 | 0.00 | 65 | 1007.9 |
| 20260504041014 | 51 | 197 | 7.0 | 18.2 | 0.00 | 0.00 | 0.00 | 65 | 1007.9 |
| 20260504040513 | 51 | 180 | 4.3 | 17.4 | 0.00 | 0.00 | 0.00 | 65 | 1007.9 |
| 20260504040033 | 51 | 215 | 7.0 | 17.4 | 0.00 | 0.00 | 0.00 | 65 | 1007.9 |
| 20260504035514 | 51 | 224 | 5.2 | 11.3 | 0.00 | 0.00 | 0.00 | 65 | 1008.0 |
| 20260504035015 | 51 | 202 | 5.2 | 14.8 | 0.00 | 0.00 | 0.00 | 64 | 1008.0 |
| 20260504034528 | 51 | 193 | 5.2 | 14.8 | 0.00 | 0.00 | 0.00 | 64 | 1008.0 |
| 20260504034021 | 52 | 188 | 7.0 | 13.9 | 0.00 | 0.00 | 0.00 | 64 | 1008.1 |
| 20260504033516 | 52 | 157 | 6.1 | 13.0 | 0.00 | 0.00 | 0.00 | 64 | 1008.1 |
| 20260504033034 | 52 | 210 | 4.3 | 13.0 | 0.00 | 0.00 | 0.00 | 64 | 1008.2 |
| 20260504032516 | 52 | 160 | 4.3 | 12.2 | 0.00 | 0.00 | 0.00 | 64 | 1008.2 |
| 20260504032014 | 52 | 166 | 5.2 | 15.6 | 0.00 | 0.00 | 0.00 | 63 | 1008.1 |
| 20260504031531 | 52 | 223 | 4.3 | 15.6 | 0.00 | 0.00 | 0.00 | 63 | 1008.1 |
| 20260504031013 | 52 | 199 | 6.1 | 13.0 | 0.00 | 0.00 | 0.00 | 63 | 1008.2 |
| 20260504030515 | 52 | 203 | 5.2 | 13.0 | 0.00 | 0.00 | 0.00 | 63 | 1008.3 |
| 20260504030032 | 52 | 201 | 4.3 | 14.8 | 0.00 | 0.00 | 0.00 | 63 | 1008.4 |
| 20260504025514 | 53 | 216 | 6.1 | 14.8 | 0.00 | 0.00 | 0.00 | 62 | 1008.3 |
| 20260504025014 | 53 | 208 | 4.3 | 14.8 | 0.00 | 0.00 | 0.00 | 63 | 1008.3 |
| 20260504024531 | 53 | 184 | 4.3 | 14.8 | 0.00 | 0.00 | 0.00 | 63 | 1008.4 |
| 20260504024015 | 53 | 157 | 4.3 | 11.3 | 0.00 | 0.00 | 0.00 | 62 | 1008.5 |
| 20260504023513 | 53 | 180 | 3.5 | 8.7 | 0.00 | 0.00 | 0.00 | 62 | 1008.6 |
| 20260504023031 | 53 | 201 | 3.5 | 9.6 | 0.00 | 0.00 | 0.00 | 63 | 1008.5 |
| 20260504022518 | 53 | 177 | 2.6 | 10.4 | 0.00 | 0.00 | 0.00 | 62 | 1008.7 |
| 20260504022016 | 53 | 181 | 3.5 | 10.4 | 0.00 | 0.00 | 0.00 | 62 | 1008.7 |
| 20260504021530 | 53 | 184 | 2.6 | 10.4 | 0.00 | 0.00 | 0.00 | 62 | 1008.7 |
| 20260504021014 | 53 | 224 | 4.3 | 10.4 | 0.00 | 0.00 | 0.00 | 62 | 1008.7 |
| 20260504020513 | 53 | 203 | 4.3 | 10.4 | 0.00 | 0.00 | 0.00 | 62 | 1008.7 |
| 20260504020032 | 53 | 179 | 2.6 | 12.2 | 0.00 | 0.00 | 0.00 | 62 | 1008.7 |
| 20260504015517 | 53 | 215 | 5.2 | 12.2 | 0.00 | 0.00 | 0.00 | 61 | 1008.6 |
| 20260504015021 | 53 | 187 | 5.2 | 12.2 | 0.00 | 0.00 | 0.00 | 61 | 1008.6 |
| 20260504014542 | 53 | 212 | 4.3 | 12.2 | 0.00 | 0.00 | 0.00 | 61 | 1008.4 |
| 20260504014018 | 53 | 198 | 2.6 | 12.2 | 0.00 | 0.00 | 0.00 | 61 | 1008.6 |
| 20260504013514 | 53 | 224 | 5.2 | 12.2 | 0.00 | 0.00 | 0.00 | 61 | 1008.6 |
| 20260504013034 | 54 | 191 | 5.2 | 12.2 | 0.00 | 0.00 | 0.00 | 60 | 1008.5 |
| 20260504012520 | 54 | 169 | 3.5 | 12.2 | 0.00 | 0.00 | 0.00 | 60 | 1008.5 |
| 20260504012014 | 54 | 199 | 4.3 | 12.2 | 0.00 | 0.00 | 0.00 | 59 | 1008.5 |
| 20260504011530 | 54 | 237 | 1.7 | 10.4 | 0.00 | 0.00 | 0.00 | 60 | 1008.5 |
| 20260504011013 | 54 | 221 | 2.6 | 10.4 | 0.00 | 0.00 | 0.00 | 58 | 1008.6 |
| 20260504010514 | 54 | 212 | 4.3 | 9.6 | 0.00 | 0.00 | 0.00 | 59 | 1008.6 |
| 20260504010032 | 54 | 241 | 2.6 | 13.9 | 0.00 | 0.00 | 0.00 | 59 | 1008.7 |
| 20260504005516 | 55 | 238 | 3.5 | 13.9 | 0.00 | 0.00 | 0.00 | 58 | 1008.7 |
| 20260504005016 | 55 | 188 | 3.5 | 12.2 | 0.00 | 0.00 | 0.00 | 58 | 1008.7 |
| 20260504004530 | 55 | 212 | 5.2 | 15.6 | 0.00 | 0.00 | 0.00 | 57 | 1008.6 |
| 20260504004016 | 55 | 219 | 5.2 | 15.6 | 0.00 | 0.00 | 0.00 | 57 | 1008.7 |
| 20260504003515 | 56 | 214 | 7.8 | 18.2 | 0.00 | 0.00 | 0.00 | 56 | 1008.7 |
| 20260504003029 | 56 | 208 | 6.1 | 19.1 | 0.00 | 0.00 | 0.00 | 55 | 1008.5 |
| 20260504002514 | 56 | 237 | 7.8 | 19.1 | 0.00 | 0.00 | 0.00 | 55 | 1008.3 |
| 20260504002013 | 56 | 214 | 8.7 | 20.9 | 0.00 | 0.00 | 0.00 | 54 | 1008.3 |
| 20260504001529 | 57 | 248 | 8.7 | 20.9 | 0.00 | 0.00 | 0.00 | 53 | 1008.3 |
| 20260504001016 | 57 | 212 | 8.7 | 20.0 | 0.00 | 0.00 | 0.00 | 52 | 1008.3 |
| 20260504000514 | 57 | 198 | 8.7 | 20.0 | 0.00 | 0.00 | 0.00 | 50 | 1008.3 |
| 20260504000039 | 57 | 216 | 7.0 | 14.8 | 0.00 | 0.00 | 0.00 | 50 | 1008.3 |
| 20260503235515 | 57 | 219 | 7.0 | 17.4 | 0.00 | 0.00 | 0.00 | 50 | 1008.2 |
| 20260503235016 | 58 | 246 | 7.0 | 17.4 | 0.00 | 0.00 | 0.00 | 50 | 1008.1 |
| 20260503234532 | 58 | 238 | 7.8 | 16.5 | 0.00 | 0.00 | 0.00 | 49 | 1008.1 |
| 20260503234014 | 58 | 209 | 3.5 | 13.0 | 0.00 | 0.00 | 0.00 | 50 | 1008.1 |
| 20260503233514 | 58 | 222 | 5.2 | 16.5 | 0.00 | 0.00 | 0.00 | 49 | 1008.1 |
| 20260503233032 | 58 | 236 | 8.7 | 16.5 | 0.00 | 0.00 | 0.00 | 48 | 1008.0 |
| 20260503232515 | 58 | 212 | 8.7 | 16.5 | 0.00 | 0.00 | 0.00 | 47 | 1008.1 |
| 20260503232015 | 58 | 221 | 5.2 | 14.8 | 0.00 | 0.00 | 0.00 | 48 | 1008.2 |
| 20260503231530 | 59 | 222 | 7.0 | 14.8 | 0.00 | 0.00 | 0.00 | 47 | 1008.2 |
| 20260503231014 | 59 | 199 | 5.2 | 13.9 | 0.00 | 0.00 | 0.00 | 47 | 1008.3 |
| 20260503230516 | 59 | 221 | 8.7 | 13.9 | 0.00 | 0.00 | 0.00 | 46 | 1008.2 |
| 20260503230031 | 59 | 233 | 6.1 | 15.6 | 0.00 | 0.00 | 0.00 | 46 | 1008.4 |
| 20260503225520 | 59 | 234 | 5.2 | 15.6 | 0.00 | 0.00 | 0.00 | 47 | 1008.4 |
| 20260503225013 | 59 | 226 | 6.1 | 15.6 | 0.00 | 0.00 | 0.00 | 45 | 1008.3 |
| 20260503224536 | 59 | 229 | 8.7 | 18.2 | 0.00 | 0.00 | 0.00 | 44 | 1008.4 |
| 20260503224015 | 59 | 212 | 6.1 | 25.2 | 0.00 | 0.00 | 0.00 | 45 | 1008.4 |
| 20260503223514 | 59 | 204 | 8.7 | 25.2 | 0.00 | 0.00 | 0.00 | 45 | 1008.4 |
| 20260503223031 | 60 | 229 | 9.6 | 25.2 | 0.00 | 0.00 | 0.00 | 44 | 1008.5 |
| 20260503222513 | 60 | 211 | 7.8 | 18.2 | 0.00 | 0.00 | 0.00 | 44 | 1008.3 |
| 20260503222014 | 60 | 222 | 9.6 | 18.2 | 0.00 | 0.00 | 0.00 | 44 | 1008.5 |